Location: Nairn
(57.5833°N, 3.8667°W)
Time: 03:02:41
(UTC+00:00)

Vanguard 1 Rocket - Pass Details

Date: 04 December 2020
Orbit: 655 x 4221 km, 34.3° (Epoch: 20 January)

Event Time Altitude Azimuth Distance (km) Brightness Sun altitude
Exits shadow 04:29:47 28° 224° (SW) 5,390 10.8 -31.5°
Maximum altitude 04:35:09 31° 203° (SSW) 4,860 10.7 -30.7°
Drops below altitude 10° 04:48:27 10° 149° (SSE) 5,128 11.5 -29.0°
Sets 04:52:15 0° 139° (SE) 5,678 12.0 -28.5°
